Location: Arroyo de San Miguel
(40.9167°N, 4.6667°W)
Time: 14:11:54
(UTC+00:00)

Cosmos 2360 Rocket - Pass Details

Date: 19 May 2025
Orbit: 834 x 842 km, 71.0° (Epoch: 18 June)

Event Time Altitude Azimuth Distance (km) Brightness Sun altitude
Rises 23:10:31 0° 346° (NNW) 3,390 6.6 -27.3°
Reaches altitude 10° 23:13:28 10° 1° (N) 2,452 5.5 -27.4°
Maximum altitude 23:17:55 24° 53° (NE) 1,683 3.9 -27.7°
Enters shadow 23:19:32 21° 78° (ENE) 1,803 3.8 -27.7°
